STARLINK-32433, 61852

Orbit data source: Space-Track

STARLINK-32433, 61852 is a payload satellite owned by SpaceX/Seattle (US) in LEO that was launched on Thu, 07 Nov 2024 UTC via an FALCON 9 launch vehicle from the Air Force Eastern Test Range (AFETR). Payload-class satellites include a variety of spacecraft equipped with specific instruments for various scientific and technological missions. These include communications satellites like Starlink; space stations such as the ISS; scientific satellites like the Hubble; Earth observation satellites from companies like Planet Labs, Umbra, and HawkEye 360; GPS; miniature CubeSats for education and research; and military/defense satellites.

Loading next visibility...
Identifier
61852, 2024-202H
Orbit
LEO
Country
Flag of USUS
Related business
Manufacturer
SpaceX/Seattle
Mission
Operational Commercial Communications
Bus & Motor
STARLINK V2M, Unknown motor
Mass
730 kg wet, ~700 kg dry
Launch date (UTC)
2024-11-07 (11 months ago)
Launch vehicle
FALCON 9
Launch site
Air Force Eastern Test Range (AFETR)
Object type
Payload
Rocket body
Debris
Shape & HBR
Box + 2 Pan, 17.7 m
Radar Cross Section
33.884 m², Large (>1 m²)

Expand to show TLE details & history
Last TLE update: 20 hours ago

TLE from 20 hours ago
0 STARLINK-32433
1 61852U 24202H   25287.17449242  .00001553  00000-0  65933-4 0  9993
2 61852  43.0034 345.1234 0001938 271.7996  88.2633 15.27587475 52932
Epoch: 2025-10-14T04:11Z
TLE epoch observation values (Epoch: 2025-10-14T04:11:16.145Z)
Latitude
-0.00005°
Longitude
-100.66063°
Altitude
482.762 km
Speed
7.626 km/s
True Right ascension
23h 00m 29s
True Declination
0° 00' 00"
Sunlit
Object was in full shadow at epoch
Visualization orbit readout
Latitude
Unknown
Longitude
Unknown
Altitude
Unknown
Speed
Unknown
Apparent Right ascension
Unknown
Apparent Declination
Unknown
Sunlit
N/A
Visualization observer readout
Local Sidereal Time
18:23:26
Azimuth
Unknown
Elevation
Unknown
Doppler factor
Unknown
Orbital elements
Apogee altitude
486.301 km
Perigee altitude
483.641 km
Semi-major axis
6,863.108 km
Eccentricity
0.00019
Inclination
43.0034°
RAAN
345.1234°
Arg. of periapsis
271.7996°
True anomaly
88.2855°
Mean anomaly
88.2633°
Eccentric anomaly
88.2744°
Mean motion
3.81735 °/min
Orbital period
94.31 mins
BSTAR
0.000065933
Loading maneuver chart data...
Computing Atmospheric mass density...
Loading historical data...
Loading historical data...
Loading historical data...
Loading historical data...
Loading historical data...
Loading historical data...
Loading historical data...

Documentation

Showing up to 5 results
|